Owen Roberts, Cayman Islands

7:08 PM EST on March 29, 2017 (GMT -0500)
Roberts International

Weather History for MWCR - January, 2014

Change the Weather History Date:

Tuesday, January 21, 2014

  Actual Average Record
Temperature  
Mean Temperature 76 °F -  
Max Temperature 81 °F 81 °F 87 °F (2002)
Min Temperature 71 °F 73 °F 66 °F (2017)
Cooling Degree Days 11    
Growing Degree Days 26 (Base 50)    
Moisture  
Dew Point 73 °F    
Average Humidity 89    
Maximum Humidity 100    
Minimum Humidity 65    
Precipitation  
Precipitation 1.06 in - - ()
Sea Level Pressure  
Sea Level Pressure 29.99 in    
Wind  
Wind Speed 6 mph ()    
Max Wind Speed 16 mph    
Max Gust Speed -    
Visibility 5.9 miles    
Events Rain    
Averages and records for this station are not official NWS values.
T = Trace of Precipitation, MM = Missing Value Source: Averaged Metar Reports

Daily Weather History Graph

Daily Weather History Graph

Search for Another Location

Airport or City:

Trip Planner

Search our weather history database for the weather conditions in past years. The results will help you decide how hot, cold, wet, or windy it might be!

Date:

Astronomy

Jan. 21, 2014 Rise Set
Actual Time 7:01 AM EST 6:11 PM EST
Civil Twilight 6:38 AM EST 6:35 PM EST
Nautical Twilight 6:11 AM EST 7:01 PM EST
Astronomical Twilight 5:45 AM EST 7:28 PM EST
Moon 10:52 PM EST (1/21) 10:17 AM EST (1/21)
Length of Visible Light 11h 56m
Length of Day
11h 09m
Waning Gibbous, 75% of the Moon is Illuminated
Jan 21
Waning Gibbous
Jan 24
Last Quarter
Jan 30
New
Feb 6
First Quarter
Feb 14
Full

Hourly Weather History & Observations

Time (EST) Temp. Heat Index Dew Point Humidity Pressure Visibility Wind Dir Wind Speed Gust Speed Precip Events Conditions
6:25 AM 75.2 °F - 71.6 °F 89% 29.98 in 6.2 mi East 4.6 mph - N/A   Partly Cloudy
7:00 AM 75 °F - 71 °F 85% 30.00 in 6 mi East 6.9 mph - -  
7:00 AM 75.2 °F - 71.6 °F 89% 29.98 in 6.2 mi East 6.9 mph - N/A   Partly Cloudy
8:00 AM 75.2 °F - 71.6 °F 89% 30.01 in 6.2 mi East 4.6 mph - N/A   Partly Cloudy
9:00 AM 78.8 °F - 73.4 °F 83% 30.04 in 6.2 mi East 5.8 mph - N/A   Partly Cloudy
10:00 AM 80.6 °F 85.4 °F 73.4 °F 79% 30.04 in 6.2 mi East 9.2 mph - N/A   Partly Cloudy
11:00 AM 78.8 °F - 73.4 °F 83% 30.04 in 6.2 mi NE 5.8 mph - N/A   Scattered Clouds
12:00 PM 80.6 °F 86.2 °F 75.2 °F 84% 30.01 in 6.2 mi ENE 6.9 mph - N/A   Mostly Cloudy
1:00 PM 80 °F - 75 °F 81% 29.99 in 6 mi ENE 8.1 mph - -   Mostly Cloudy
1:00 PM 80.6 °F 86.2 °F 75.2 °F 84% 29.98 in 6.2 mi ENE 8.1 mph - N/A   Mostly Cloudy
2:00 PM 78.8 °F - 75.2 °F 89% 29.95 in 6.2 mi East 8.1 mph - N/A   Partly Cloudy
3:00 PM 80.6 °F 86.2 °F 75.2 °F 84% 29.92 in 6.2 mi ENE 9.2 mph - N/A   Scattered Clouds
3:55 PM 77.0 °F - 64.4 °F 65% 29.92 in 6.2 mi NE 6.9 mph - N/A   Mostly Cloudy
4:58 PM 75.2 °F - 75.2 °F 100% 29.95 in 6.2 mi NNW 5.8 mph - N/A Rain Light Rain
5:53 PM 73.4 °F - 73.4 °F 100% 29.98 in 0.6 mi West 5.8 mph - N/A Rain Heavy Rain
7:00 PM 71 °F - 71 °F 100% 30.01 in 6 mi SSW 16.1 mph - - Rain Light Rain
7:00 PM 71.6 °F - 71.6 °F 100% 30.01 in 6.2 mi NW 16.1 mph - N/A Rain Light Rain
7:50 PM 71.6 °F - 71.6 °F 100% 30.01 in 6.2 mi NW 6.9 mph - N/A Rain Light Rain
8:50 PM 71.6 °F - 71.6 °F 100% 30.01 in - NE 3.5 mph - N/A   Clear
9:50 PM 73.4 °F - 73.4 °F 100% 30.04 in - NE 2.3 mph - N/A   Clear